Location: Omaha
(41.2590°N, 95.9380°W)
Time: 10:34:42
(UTC-05:00)

OTV 5 (USA 277) - Pass Details

Date: 16 October 2017
Orbit: 404 x 417 km, 43.0° (Epoch: 07 September)

Event Time Altitude Azimuth Distance (km) Brightness Sun altitude
Rises 20:01:30 0° 278° (W) 2,354 ? -15.9°
Reaches altitude 10° 20:03:37 10° 281° (WNW) 1,491 ? -16.3°
Maximum altitude 20:06:58 64° 4° (N) 466 ? -16.9°
Enters shadow 20:07:46 46° 63° (ENE) 573 ? -17.1°
